www.pogodaiklimat.ru

Погода и климат >> Архив погоды >> Колумбия >> Монтерия


ПОГОДА в Монтерии

  • Прогноз погоды в Монтерии
  • Монитор погоды в Монтерии

АРХИВ ПОГОДЫ в Монтерии

Время (UTC), дата Ветер
(напр.,м/с)
 
Видим.   Явления Облачность Т
(С)
Тd
(С)
f
(%)
Тe
(С)
Тes
(С)
Комфортность P
(гПа)
Po
(гПа)
Тmin
(С)
Tmax
(С)
R
(мм)
R24
(мм)
S
(см)
12 12.01 штиль 0 7000 м мгла 1/1 500 м
[Sc diur, vesp]
+22.2 +21.7 97 +29 +30 очень
душно
1013.5 1012.1 +20.6
15 12.01 штиль 0 16 км мгла 3/3 450 м
[Sc diur, vesp]
+28.8 +23.9 75 +40 +51 опасность
солнечного
удара
1014.5 1013.1
18 12.01 штиль 0 16 км мгла 4/4 600 м
[Sc diur, vesp]
+32.4 +20.9 51 +40 +52 опасность
солнечного
удара
1010.4 1010.0
21 12.01 СЗ 3 16 км мгла 4/4 600 м
[Sc diur, vesp]
+33.6 +21.0 48 +41 +43 опасность
перегрева
1009.3 1007.9
00 13.01 12 км мгла н/о +26.8 +22.3 76 +35 +35 очень
душно
1010.6 1009.2 +34.2
03 13.01 штиль 0 12 км мгла 1/0 300 м
[As trans]
+24.6 +22.6 89 +32 +32 очень
душно
1013.0 1012.8
12 13.01 7000 м мгла н/о +22.6 +22.0 96 +30 +31 очень
душно
1011.4 1010.4 +21.8
15 13.01 штиль 0 15 км мгла 4/4 600 м
[Sc diur, vesp]
+29.0 +23.3 71 +39 +49 очень
душно
1013.0 1011.7
18 13.01 С 3 16 км мгла 5/5 700 м
[Cu Sc]
+33.0 +21.9 52
21 13.01 СВ 3 16 км мгла 3/3 700 м
[Cu med, cong]
+34.4 +22.0 49 +43 +45 опасность
перегрева
1008.4 1007.0
00 14.01 СЗ 3 12 км мгла 1/1 600 м
[Sc diur, vesp As trans]
+27.2 +23.9 82 +37 +37 очень
душно
1009.8 1008.4 +35.0
03 14.01 штиль 0 12 км мгла 1/0
[As trans]
+25.4 +24.3 94 +35 +35 очень
душно
1011.5 1010.1
12 14.01 штиль 0 3000 м дымка 3/3 300 м
[St]
+23.4 +23.1 98 +33 +33 очень
душно
1011.1 1009.7 +22.2
15 14.01 штиль 0 15 км мгла 6/6 540 м
[Sc diur, vesp]
+29.2 +24.6 76 +41 +48 опасность
перегрева
1012.5 1011.1
18 14.01 штиль 0 16 км мгла 5/5 540 м
[Sc diur, vesp]
+33.2 +22.2 53 +42 +53 опасность
перегрева
1010.1 1008.7
21 14.01 штиль 0 16 км мгла 5/4 600 м
[Sc diur, vesp Ac trans]
+34.6 +21.9 48 +43 +46 опасность
перегрева
1007.8 1006.4
00 15.01 СЗ 4 15 км мгла 3/3 540 м
[Sc diur, vesp As trans]
+27.6 +22.6 74 +36 +36 очень
душно
1008.4 1008.0 +34.8
03 15.01 штиль 0 12 км мгла 1/0 600 м
[As trans]
+25.2 +22.7 86 +33 +33 очень
душно
1011.1 1009.7
12 15.01 штиль 0 8000 м мгла 1/1 600 м
[Sc diur, vesp As trans]
+23.4 +22.8 96 +33 +33 очень
душно
1010.6 1009.2 +22.2
15 15.01 штиль 0 16 км мгла 4/4 600 м
[Sc diur, vesp]
+28.8 +24.2 76 +40 +50 очень
душно
1011.6 1010.2
18 15.01 штиль 0 16 км мгла 6/6 660 м
[Cu Sc]
+33.4 +24.3 59 +46 +54 опасность
перегрева
1009.1 1007.7
21 15.01 С 5 16 км мгла 8/8 700 м
[Sc diur, vesp]
+31.4 +24.7 68 +45 +45 опасность
перегрева
1007.6 1006.2
00 16.01 З 3 15 км мгла 3/1 600 м
[Sc diur, vesp As trans]
+28.0 +24.7 82 +40 +40 очень
душно
1009.6 1008.2 +34.6
03 16.01 штиль 0 15 км мгла 1/0
[As trans]
+25.2 +24.4 95 +35 +35 очень
душно
1011.1 1009.7
12 16.01 штиль 0 7000 м мгла 1/1 360 м
[St Ac As]
+24.4 +23.9 97 +33 +34 очень
душно
1011.4 1010.0 +22.8
15 16.01 штиль 0 15 км мгла 5/5 540 м
[Sc diur, vesp]
+28.8 +25.1 80 +42 +50 опасность
перегрева
1012.8 1011.4
18 16.01 штиль 0 16 км мгла 4/4 450 м
[Sc diur, vesp]
+33.6 +23.6 56 +45 +58 опасность
перегрева
1010.5 1009.1
21 16.01 С 4 16 км мгла 4/4 500 м
[Sc diur, vesp]
+32.6 +23.6 59 +44 +45 опасность
перегрева
1008.2 1006.8
00 17.01 СЗ 4 15 км мгла 1/0 600 м
[As trans]
+27.5 +24.1 82 +38 +38 очень
душно
1009.8 1008.4 +35.0
03 17.01 штиль 0 15 км мгла 1/0 600 м
[As trans]
+25.8 +24.1 90 +36 +36 очень
душно
1012.5 1011.1
12 17.01 штиль 0 7000 м мгла 4/4 500 м
[Sc diur, vesp As trans]
+23.4 +22.8 96 +33 +33 очень
душно
1012.1 1010.7 +22.4
15 17.01 штиль 0 15 км мгла 4/4 480 м
[Sc diur, vesp]
+29.2 +24.0 74 +41 +50 опасность
перегрева
1013.4 1012.0
18 17.01 штиль 0 16 км мгла 5/5 660 м
[Cu Sc]
+33.0 +23.2 56 +43 +54 опасность
перегрева
1010.8 1009.4
21 17.01 СЗ 5 16 км мгла 1/1 700 м
[Cu Sc]
+34.2 +24.3 56 +46 +48 опасность
перегрева
1008.1 1006.7
00 18.01 СЗ 3 16 км мгла 1/0
[As trans]
+27.2 +24.7 86 +39 +39 очень
душно
1009.8 1008.4 +35.0
03 18.01 штиль 0 12 км мгла 6/6 450 м
[Frnb]
+25.6 +24.8 95 +36 +36 очень
душно
1011.4 1010.0
12 18.01 штиль 0 9000 м мгла 8/8 660 м
[Sc diur, vesp Ac As]
+25.4 +24.8 96 +36 +36 очень
душно
1010.8 1009.4 +23.8
15 18.01 штиль 0 15 км мгла 9/9 540 м
[Sc diur, vesp]
+30.0 +24.3 72 +42 +44 опасность
перегрева
1012.2 1010.8
18 18.01 штиль 0 15 км мгла 4/4 600 м
[Sc diur, vesp]
+34.2 +24.0 55 +46 +59 опасность
перегрева
1009.7 1008.3
21 18.01 штиль 0 15 км мгла 4/4 600 м
[Sc diur, vesp]
+35.0 +22.7 49 +45 +48 опасность
перегрева
1006.4 1005.0
00 19.01 штиль 0 15 км мгла 4/4 600 м
[Sc diur, vesp]
+28.2 +23.8 77 +39 +39 очень
душно
1007.7 1006.3 +35.4
03 19.01 штиль 0 15 км мгла 1/0 600 м
[As trans]
+25.8 +24.1 90 +36 +36 очень
душно
1008.8 1007.4

 

Местоположение метеостанции Монтерия (Колумбия): широта 8.82 долгота -75.85 высота над уровнем моря 26 м.

В архиве по умолчанию представлена погода в Монтерии за последнюю неделю. Архивные данные за месяц целиком и за предыдущие месяцы, начиная с января 2011 года, Вы можете получить, выбрав интересующий диапазон дат из раскрывающегося списка и нажав кнопку "Ввод!".


*Определитесь, кто Вы:
робот инопланетянин человек

Внимание! Время в таблицах - всемирное. Для получения местного времени необходимо прибавить поправку, которая равна -5 ч.

Смотрите также архив погоды в соседних городах и на ближайших метеорологических станциях:

Погода в Апартадо (Колумбия) (145 км)
Погода в Картахене (Колумбия) (185 км)
Погода в Барранкилье (Колумбия) (257 км)
Погода в Медельине (Колумбия) (290 км)
Погода в Барранкабермехе (Колумбия) (302 км)
Погода в Рионегро (Колумбия) (303 км)
Погода в Санта-Марте (Колумбия) (312 км)
Погода в Вальедупаре (Колумбия) (337 км)
Погода в Букараманге (Колумбия) (349 км)
Погода в Кибдо (Колумбия) (355 км)

Пояснения к столбцам:

Ветер - указаны скорость ветра в м/с - средняя за 10 мин, порывы в срок и между сроками (в фигурных скобках) и направление, откуда дует ветер: С - северный, СВ - северо-восточный, В - восточный, ЮВ - юго-восточный, Ю - южный, ЮЗ - юго-западный, З - западный, СЗ - северо-западный.
Видимость - горизонтальная дальность видимости в метрах или километрах. При видимости от 1 до 10 км при отсутствии осадков обычно наблюдается дымка, при ухудшении видимости до 1 км и менее - туман. В сухую погоду видимость может ухудшаться дымом, пылью или мглою.
Явления - указаны атмосферные явления, наблюдавшиеся в срок или в последний час перед сроком; фигурными скобками обозначены явления, наблюдавшиеся между сроками (за 1-3 часа до срока); квадратными скобками обозначены град или гололедные отложения с указанием их диаметра в мм.
Облачность - указаны через наклонную черту общая и нижняя облачность в баллах и высота нижней границы облаков в метрах; квадратными скобками обозначены формы облаков: Ci - перистые, Cs - перисто-слоистые, Cc - перисто-кучевые, Ac - высококучевые, As - высокослоистые, Sc - слоисто-кучевые, Ns - слоисто-дождевые, Cu - кучевые, Cb - кучево-дождевые. Подробнее классификацию облаков см. в Атласе облаков (PDF).
T - Температура воздуха - температура, измеренная на высоте 2 м над землей.
Td - Температура точки росы - температура, при понижении до которой содержащийся в воздухе водяной пар достигнет насыщения.
f - Относительная влажность воздуха - влажноcть воздуха, измеренная на высоте 2 м над землей.
Te - Эффективная температура - температура, которую ощущает одетый по сезону человек в тени. Характеристика душности погоды. При расчете учитывается влияние влажности воздуха и скорости ветра на теплоощущения человека.
Tes - Эффективная температура на солнце - температура, которую ощущает человек, с поправкой на солнечный нагрев. Характеристика знойности погоды. Зависит от высоты солнца над горизонтом, облачности и скорости ветра. Ночью, в пасмурную погоду, а также при ветре 12 м/с и более поправка равна нулю.
P - Атмосферное давление - приведенное к уровню моря атмосферное давление.
Po - Атмосферное давление - измеренное на уровне метеостанции атмосферное давление.
Tmin - Минимальная температура - минимум температуры воздуха на высоте 2 м над землей.
Tmax - Максимальная температура - максимум температуры воздуха на высоте 2 м над землей.
R - Количество осадков - Количество выпавших осадков за период времени, мм. При наведении курсора мыши на число - период времени, за который выпало указанное количество осадков.
R24 - Количество осадков - Количество выпавших осадков за 24 часа, мм.
S - Снежный покров - Высота снежного покрова, см. При наведении курсора мыши на число - состояние снежного покрова и степень покрытия местности в баллах.